Regional Weather Roundup
Issued by NWS

Home | Current Version | Previous Version | Text Only | Print | Product List | Glossary On
Versions: 1 2 3 4 5 6 7 8 9 10 11 12 13 14 15 16 17 18 19 20 21 22 23 24 25 26 27 28 29 30 31 32 33 34 35 36 37 38 39 40 41 42 43 44 45 46 47 48 49 50
000
ASUS43 KBIS 271210
RWRND
NORTH DAKOTA REGIONAL WEATHER ROUNDUP
NATIONAL WEATHER SERVICE EASTERN NORTH DAKOTA/GRAND FORKS ND
700 AM CDT THU APR 27 2017

  NOTE: "FAIR" INDICATES FEW OR NO CLOUDS BELOW 12,000 FEET WITH NO
  SIGNIFICANT WEATHER AND/OR OBSTRUCTIONS TO VISIBILITY.

NDZ001>003-009>011-017-271300-
...NORTHWEST NORTH DAKOTA...

CITY           SKY/WX    TMP DP  RH WIND       PRES   REMARKS
WILLISTON      FAIR      27  22  81 N5        29.76S WCI  22
6HR MIN TEMP:  23; 6HR MAX TEMP:  34;

MINOT          FAIR      22  18  85 NW6       29.76S WCI  14
MINOT AFB      FAIR      24  20  85 N8        29.76F WCI  15
6HR MIN TEMP:  20; 6HR MAX TEMP:  31;

$$

NDZ018>021-031>035-040>046-271300-
...SOUTHWEST NORTH DAKOTA...

CITY           SKY/WX    TMP DP  RH WIND       PRES   REMARKS
BISMARCK       CLOUDY    31  25  78 W5        29.75R WCI  26
DICKINSON      FAIR      20  16  84 SE3       29.70F
GARRISON         N/A     20  18  92 N8        29.75S WCI  10
HETTINGER      CLOUDY    24  22  91 CALM      29.71S
$$

NDZ004>008-012>016-024-026-027-054-271300-
...NORTHEAST NORTH DAKOTA...

CITY           SKY/WX    TMP DP  RH WIND       PRES   REMARKS
GRAND FORKS    FAIR      23  20  88 N8        29.73R WCI  14
GRAND FORKS AF CLEAR     22  20  90 N9        29.73  WCI  12
DEVILS LAKE    FAIR      27  23  85 N8        29.74S WCI  19
$$

NDZ022-023-025-028>030-036>039-047>053-271300-
...SOUTHEAST NORTH DAKOTA...

CITY           SKY/WX    TMP DP  RH WIND       PRES   REMARKS
JAMESTOWN      CLOUDY    29  26  89 N15       29.70S WCI  18
FARGO          CLOUDY    26  22  84 N18       29.69R WCI  13
WAHPETON       CLOUDY    28  23  80 N15G22    29.67S WCI  17
$$




USA.gov is the U.S. government's official web portal to all federal, state and local government web resources and services.